Flag for Austria Weather past 2 weeks in Steyr, Upper Austria, Austria

Now
85 °F

Warm.


Feels Like: 88 °F
Forecast: 63 / 73 °F
Wind: 2 mph from Northeast

Location: Kremsmuenster

Current Time: Jul 7, 2015 at 1:20:19 PM

Latest Report: Jul 7, 2015 at 12:00 PM


Visibility: N/A

Pressure: 29.91 "Hg

Humidity: 55%

Dew point: 67 °F

Location of SteyrLocation

Historic Weather in Steyr — Graph

°F

Steyr temperature yesterday

Maximum temperature yesterday: 87 °F (at 5:00 PM)
Minimum temperature yesterday: 69 °F (at 3:00 AM)
Average temperature yesterday: 79 °F

Past Weeks' High & Low Weather Summary

 TemperatureHumidityPressure
High93 °F (Jul 5, 5:00 PM)94% (Jun 22, 10:00 PM)30.28 "Hg (Jun 22, 10:00 PM)
Low49 °F (Jun 25, 6:00 AM)24% (Jul 4, 5:00 PM)29.72 "Hg (Jun 23, 2:00 AM)
Average69 °F65%30.11 "Hg
* Reported Jun 22 12:00 Noon — Jul 7 12:00 Noon, Steyr, Weather by CustomWeather, © 2015

Note: Actual official high and low records may vary slightly from our data, if they occured in-between our weather recording intervals... More about our weather records

Advertising

Steyr weather history for previous 24 hours

 ConditionsComfort  
Time TempWeatherWind HumidityBarometerVisibility
12:00 PM
Tue, Jul 7
85 °FWarm.2 mph55%29.91 "HgN/A
11:00 AM82 °FPassing clouds.3 mph62%29.94 "Hg25 mi
10:00 AM79 °FWarm.2 mph69%29.96 "HgN/A
9:00 AM74 °FMild.2 mph79%29.99 "HgN/A
8:00 AM71 °FPassing clouds.1 mph84%30.01 "Hg25 mi
7:00 AM69 °FPassing clouds.1 mph86%30.02 "Hg22 mi
6:00 AM68 °FMild.1 mph87%30.03 "HgN/A
4:00 AM70 °FMild.2 mph82%30.03 "HgN/A
3:00 AM72 °FMild.3 mph80%30.05 "HgN/A
2:00 AM73 °FMild.5 mph76%30.05 "HgN/A
1:00 AM74 °FMild.5 mph76%30.05 "HgN/A
12:00 AM75 °FMild.3 mph73%30.06 "HgN/A
11:00 PM
Mon, Jul 6
77 °FMild.3 mph74%30.05 "HgN/A
10:00 PM78 °FWarm.No wind67%30.05 "HgN/A
9:00 PM81 °FWarm.1 mph60%30.03 "HgN/A
8:00 PM84 °FSunny.1 mph53%30.03 "Hg19 mi
7:00 PM86 °FWarm.2 mph51%30.02 "HgN/A
6:00 PM86 °FWarm.1 mph51%30.03 "HgN/A
5:00 PM87 °FPartly sunny.1 mph51%30.04 "Hg3 mi
4:00 PM87 °FWarm.1 mph51%30.06 "HgN/A
3:00 PM84 °FWarm.1 mph52%30.07 "HgN/A
2:00 PM84 °FWarm.2 mph55%30.08 "HgN/A
1:00 PM83 °FWarm.5 mph55%30.09 "HgN/A
Weather by CustomWeather, © 2015

See weather overviewHow to use our weather pages